Terminal Aerodrome Forecast
Issued by NWS

Current Version | Previous Version | Text Only | Print | Product List | Glossary On
Versions: 1 2 3 4 5 6 7 8 9 10 11 12 13
000
FTUS42 TJSJ 260500
TAFJPS
TAF
TJPS 260532Z 2606/2706 05005KT P6SM FEW030 SCT090
     FM261400 12010G15KT P6SM SCT030 SCT050
     FM262330 09007KT P6SM FEW030 SCT060
      AMD NOT SKED 2612/2703=

USA.gov is the U.S. government's official web portal to all federal, state and local government web resources and services.